2023/09/16 00:00:00, 0.0,22.3
2023/09/16 00:10:00,84.8,22.4
2023/09/16 00:20:00,85.1,22.3
2023/09/16 00:30:00,85.8,22.6
2023/09/16 00:40:00,86.7,22.5
2023/09/16 00:50:00, 0.0,22.4
2023/09/16 01:00:00,84.2,22.3
2023/09/16 01:10:00,84.3,22.5
2023/09/16 01:20:00,84.7,22.4
2023/09/16 01:30:00,85.8,22.6
2023/09/16 01:40:00,---,22.2
2023/09/16 01:50:00,84.7,22.3
2023/09/16 02:00:00,83.8,22.2
2023/09/16 02:10:00,83.4,22.0
2023/09/16 02:20:00,83.7,22.0
2023/09/16 02:30:00,83.9,22.0
2023/09/16 02:40:00,---,21.9
2023/09/16 02:50:00,---,21.9
2023/09/16 03:00:00,84.5,21.9
2023/09/16 03:10:00,85.5,21.8
2023/09/16 03:20:00,84.6,21.8
2023/09/16 03:30:00,84.3,21.9
2023/09/16 03:40:00,84.1,21.9
2023/09/16 03:50:00,85.0,21.9
2023/09/16 04:00:00,84.2,21.8
2023/09/16 04:10:00,84.9,21.8
2023/09/16 04:20:00,85.6,22.4
2023/09/16 04:30:00,86.1,22.1
2023/09/16 04:40:00,86.9,22.1
2023/09/16 04:50:00,87.5,22.3
2023/09/16 05:00:00,86.0,22.2
2023/09/16 05:10:00,85.0,22.2
2023/09/16 05:20:00,83.7,22.2
2023/09/16 05:30:00,83.6,22.2
2023/09/16 05:40:00,83.4,22.5
2023/09/16 05:50:00,83.2,22.0
2023/09/16 06:00:00,---,22.0
2023/09/16 06:10:00,83.0,22.3
2023/09/16 06:20:00, 0.0,21.7
2023/09/16 06:30:00, 0.0,22.4
2023/09/16 06:40:00, 0.0,22.4
2023/09/16 06:50:00, 0.0,22.6
2023/09/16 07:00:00,---,22.9
2023/09/16 07:10:00,---,24.3
2023/09/16 07:20:00,---,25.3
2023/09/16 07:30:00,---,26.2
2023/09/16 07:40:00,---,26.3
2023/09/16 07:50:00,---,27.0
2023/09/16 08:00:00,---,27.4
2023/09/16 08:10:00,---,28.4
2023/09/16 08:20:00,---,28.8
2023/09/16 08:30:00, 0.0,29.2
2023/09/16 08:40:00, 0.0,30.4
2023/09/16 08:50:00, 0.0,31.3
2023/09/16 09:00:00, 0.0,31.6
2023/09/16 09:10:00, 0.0,31.7
2023/09/16 09:20:00, 0.0,31.3
2023/09/16 09:30:00, 0.0,31.6
2023/09/16 09:40:00, 0.0,31.9
2023/09/16 09:50:00, 0.0,32.8
2023/09/16 10:00:00, 0.0,33.5
2023/09/16 10:10:00, 0.0,36.1
2023/09/16 10:20:00, 0.0,35.7
2023/09/16 10:30:00, 0.0,35.5
2023/09/16 10:40:00, 0.0,35.3
2023/09/16 10:50:00, 0.0,34.8
2023/09/16 11:00:00, 0.0,30.7
2023/09/16 11:10:00, 0.0,30.9
2023/09/16 11:20:00, 0.0,31.7
2023/09/16 11:30:00, 0.0,31.7
2023/09/16 11:40:00, 0.0,31.8
2023/09/16 11:50:00, 0.0,31.7
2023/09/16 12:00:00, 0.0,30.4
2023/09/16 12:10:00, 0.0,30.8
2023/09/16 12:20:00, 0.0,31.7
2023/09/16 12:30:00, 0.0,31.9
2023/09/16 12:40:00, 0.0,31.4
2023/09/16 12:50:00, 0.0,31.0
2023/09/16 13:00:00, 0.0,30.2
2023/09/16 13:10:00, 0.0,29.8
2023/09/16 13:20:00, 0.0,31.5
2023/09/16 13:30:00, 0.0,29.1
2023/09/16 13:40:00, 0.0,28.9
2023/09/16 13:50:00, 0.0,28.6
2023/09/16 14:00:00, 0.0,28.4
2023/09/16 14:10:00, 0.0,27.7
2023/09/16 14:20:00, 0.1,27.6
2023/09/16 14:30:00, 0.4,26.8
2023/09/16 14:40:00, 0.7,26.1
2023/09/16 14:50:00, 0.8,26.1
2023/09/16 15:00:00, 0.8,25.8
2023/09/16 15:10:00,10.8,26.0
2023/09/16 15:20:00,28.1,25.7
2023/09/16 15:30:00,33.4,26.1
2023/09/16 15:40:00,33.1,26.5
2023/09/16 15:50:00,41.5,27.1
2023/09/16 16:00:00, 0.0,27.3
2023/09/16 16:10:00, 0.0,26.5
2023/09/16 16:20:00, 0.7,26.7
2023/09/16 16:30:00, 0.7,25.9
2023/09/16 16:40:00, 0.6,25.0
2023/09/16 16:50:00, 0.5,24.6
2023/09/16 17:00:00, 0.6,24.6
2023/09/16 17:10:00, 0.7,24.6
2023/09/16 17:20:00, 0.7,24.5
2023/09/16 17:30:00, 0.7,24.5
2023/09/16 17:40:00, 0.7,24.6
2023/09/16 17:50:00, 0.7,24.5
2023/09/16 18:00:00, 0.7,24.2
2023/09/16 18:10:00, 0.7,24.3
2023/09/16 18:20:00, 0.5,24.3
2023/09/16 18:30:00, 0.7,24.2
2023/09/16 18:40:00, 0.6,24.0
2023/09/16 18:50:00, 0.6,23.8
2023/09/16 19:00:00, 0.7,23.8
2023/09/16 19:10:00, 0.8,24.0
2023/09/16 19:20:00, 0.8,24.0
2023/09/16 19:30:00, 0.8,23.8
2023/09/16 19:40:00, 0.8,23.8
2023/09/16 19:50:00, 0.7,23.7
2023/09/16 20:00:00, 0.6,23.6
2023/09/16 20:10:00, 0.7,23.5
2023/09/16 20:20:00, 0.7,23.5
2023/09/16 20:30:00, 0.8,23.6
2023/09/16 20:40:00, 0.7,22.9
2023/09/16 20:50:00, 0.6,23.3
2023/09/16 21:00:00, 0.7,23.4
2023/09/16 21:10:00, 0.7,23.1
2023/09/16 21:20:00, 0.7,23.0
2023/09/16 21:30:00, 0.7,22.7
2023/09/16 21:40:00, 0.8,22.7
2023/09/16 21:50:00, 0.8,22.7
2023/09/16 22:00:00, 0.9,22.6
2023/09/16 22:10:00, 0.9,22.3
2023/09/16 22:20:00, 1.0,22.4
2023/09/16 22:30:00, 1.0,22.3
2023/09/16 22:40:00, 0.9,22.4
2023/09/16 22:50:00, 1.0,22.2
2023/09/16 23:00:00, 0.9,22.8
2023/09/16 23:10:00, 0.9,21.9
2023/09/16 23:20:00, 1.0,22.1
2023/09/16 23:30:00, 1.1,22.1
2023/09/16 23:40:00, 1.1,22.1
2023/09/16 23:50:00, 1.2,22.3
